| time (UTC) | temp F | wind direction | speed MPH | gust MPH | rain 1hr in | rain 24hr in | rain mn in | humidity % | barometer mb |
| 20260508011951 | 48 | 320 | 7.0 | 0.0 | 0.00 | 0.00 | 0.00 | 87 | |
| 20260508010211 | 48 | 320 | 7.0 | 0.0 | 0.00 | 0.00 | 0.00 | 87 | 1016.0 |
| 20260508003103 | 48 | 310 | 7.0 | 0.0 | 0.00 | 0.00 | 0.00 | 87 | 1016.0 |
| 20260508001851 | 48 | 300 | 7.0 | 0.0 | 0.00 | 0.00 | 0.00 | 87 | |
| 20260507233103 | 50 | 300 | 5.0 | 0.0 | 0.00 | 0.00 | 0.00 | 87 | 1016.0 |
| 20260507232103 | 50 | 290 | 6.0 | 0.0 | 0.00 | 0.00 | 0.00 | 87 | 1016.0 |
| 20260507231851 | 50 | 340 | 7.0 | 0.0 | 0.00 | 0.00 | 0.00 | 87 | |
| 20260507231003 | 50 | 300 | 6.0 | 0.0 | 0.00 | 0.00 | 0.00 | 87 | 1016.0 |
| 20260507230603 | 50 | 320 | 6.0 | 0.0 | 0.00 | 0.00 | 0.00 | 87 | 1016.0 |
| 20260507225402 | 50 | 330 | 7.0 | 0.0 | 0.00 | 0.00 | 0.00 | 87 | 1016.0 |
| 20260507223102 | 50 | 320 | 6.0 | 0.0 | 0.00 | 0.00 | 0.00 | 87 | 1016.0 |
| 20260507222602 | 50 | 320 | 6.0 | 0.0 | 0.00 | 0.00 | 0.00 | 87 | 1016.0 |
| 20260507222153 | 50 | 320 | 7.0 | 0.0 | 0.00 | 0.00 | 0.00 | 87 | |
| 20260507213103 | 50 | 320 | 7.0 | 0.0 | 0.00 | 0.00 | 0.00 | 87 | 1016.0 |
| 20260507211853 | 50 | 320 | 9.0 | 0.0 | 0.00 | 0.00 | 0.00 | 87 | |
| 20260507210103 | 50 | 320 | 8.0 | 0.0 | 0.00 | 0.00 | 0.00 | 87 | 1016.0 |
| 20260507203103 | 52 | 320 | 8.0 | 0.0 | 0.00 | 0.00 | 0.00 | 87 | 1015.0 |
| 20260507201854 | 52 | 340 | 7.0 | 0.0 | 0.00 | 0.00 | 0.00 | 87 | |
| 20260507200212 | 52 | 340 | 7.0 | 0.0 | 0.00 | 0.00 | 0.00 | 87 | 1015.0 |
| 20260507193102 | 52 | 310 | 8.0 | 0.0 | 0.00 | 0.00 | 0.00 | 87 | 1014.0 |
| 20260507191954 | 54 | 310 | 9.0 | 0.0 | 0.00 | 0.00 | 0.00 | 81 | |
| 20260507183102 | 54 | 280 | 7.0 | 0.0 | 0.00 | 0.00 | 0.00 | 81 | 1014.0 |
| 20260507181851 | 54 | 280 | 9.0 | 0.0 | 0.00 | 0.00 | 0.00 | 76 | |
| 20260507173102 | 57 | 280 | 9.0 | 0.0 | 0.00 | 0.00 | 0.00 | 67 | 1013.0 |
| 20260507171851 | 57 | 250 | 12.0 | 0.0 | 0.00 | 0.00 | 0.00 | 67 | |
| 20260507163103 | 57 | 270 | 12.0 | 0.0 | 0.00 | 0.00 | 0.00 | 62 | 1013.0 |
| 20260507162154 | 59 | 280 | 14.0 | 0.0 | 0.00 | 0.00 | 0.00 | 58 | |
| 20260507160104 | 59 | 280 | 14.0 | 0.0 | 0.00 | 0.00 | 0.00 | 58 | 1012.0 |
| 20260507153355 | 59 | 260 | 17.0 | 0.0 | 0.00 | 0.00 | 0.00 | 58 | 1012.0 |
| 20260507153103 | 59 | 260 | 17.0 | 0.0 | 0.00 | 0.00 | 0.00 | 58 | 1012.0 |
| 20260507151852 | 61 | 250 | 14.0 | 0.0 | 0.00 | 0.00 | 0.00 | 55 | |
| 20260507143103 | 63 | 240 | 14.0 | 0.0 | 0.00 | 0.00 | 0.00 | 51 | 1012.0 |
| 20260507141854 | 63 | 220 | 14.0 | 0.0 | 0.00 | 0.00 | 0.00 | 51 | |
| 20260507133102 | 61 | 210 | 14.0 | 0.0 | 0.00 | 0.00 | 0.00 | 55 | 1012.0 |
| 20260507131954 | 61 | 230 | 16.0 | 0.0 | 0.00 | 0.00 | 0.00 | 55 | |
| 20260507130103 | 61 | 220 | 15.0 | 0.0 | 0.00 | 0.00 | 0.00 | 55 | 1012.0 |
| 20260507123102 | 61 | 210 | 14.0 | 0.0 | 0.00 | 0.00 | 0.00 | 55 | 1012.0 |
| 20260507121853 | 61 | 220 | 16.0 | 0.0 | 0.00 | 0.00 | 0.00 | 51 | |
| 20260507120103 | 59 | 220 | 17.0 | 0.0 | 0.00 | 0.00 | 0.00 | 58 | 1012.0 |
| 20260507113103 | 61 | 220 | 16.0 | 0.0 | 0.00 | 0.00 | 0.00 | 55 | 1011.0 |
| 20260507111852 | 61 | 220 | 16.0 | 0.0 | 0.00 | 0.00 | 0.00 | 55 | |
| 20260507110204 | 63 | 230 | 15.0 | 0.0 | 0.00 | 0.00 | 0.00 | 55 | 1011.0 |
| 20260507103102 | 61 | 210 | 13.0 | 0.0 | 0.00 | 0.00 | 0.00 | 59 | 1011.0 |
| 20260507102053 | 61 | 240 | 14.0 | 0.0 | 0.00 | 0.00 | 0.00 | 59 | |
| 20260507100103 | 61 | 230 | 15.0 | 0.0 | 0.00 | 0.00 | 0.00 | 59 | 1011.0 |
| 20260507093103 | 59 | 240 | 13.0 | 0.0 | 0.00 | 0.00 | 0.00 | 62 | 1011.0 |
| 20260507091851 | 61 | 230 | 16.0 | 0.0 | 0.00 | 0.00 | 0.00 | 63 | |
| 20260507083103 | 61 | 230 | 17.0 | 0.0 | 0.00 | 0.00 | 0.00 | 67 | 1010.0 |
| 20260507081851 | 57 | 210 | 16.0 | 0.0 | 0.00 | 0.00 | 0.00 | 71 | |
| 20260507073103 | 57 | 220 | 15.0 | 0.0 | 0.00 | 0.00 | 0.00 | 71 | 1010.0 |
| 20260507071852 | 57 | 210 | 12.0 | 0.0 | 0.00 | 0.00 | 0.00 | 76 | |
| 20260507063103 | 57 | 210 | 10.0 | 0.0 | 0.00 | 0.00 | 0.00 | 82 | 1009.0 |
| 20260507061852 | 55 | 210 | 12.0 | 0.0 | 0.00 | 0.00 | 0.00 | 82 | |
| 20260507060104 | 55 | 210 | 10.0 | 0.0 | 0.00 | 0.00 | 0.00 | 87 | 1009.0 |
| 20260507053102 | 54 | 200 | 12.0 | 0.0 | 0.00 | 0.00 | 0.00 | 87 | 1009.0 |
| 20260507051851 | 54 | 190 | 9.0 | 0.0 | 0.00 | 0.00 | 0.00 | 87 | |
| 20260507050104 | 54 | 190 | 8.0 | 0.0 | 0.00 | 0.00 | 0.00 | 87 | 1009.0 |
| 20260507043103 | 52 | 200 | 8.0 | 0.0 | 0.00 | 0.00 | 0.00 | 93 | 1008.0 |
| 20260507042056 | 52 | 210 | 12.0 | 0.0 | 0.00 | 0.00 | 0.00 | 93 | |
| 20260507033103 | 52 | 200 | 9.0 | 0.0 | 0.00 | 0.00 | 0.00 | 93 | 1008.0 |
| 20260507031852 | 52 | 210 | 9.0 | 0.0 | 0.00 | 0.00 | 0.00 | 93 | |
| 20260507030210 | 52 | 210 | 8.0 | 0.0 | 0.00 | 0.00 | 0.00 | 93 | 1008.0 |
| 20260507023103 | 54 | 210 | 9.0 | 0.0 | 0.00 | 0.00 | 0.00 | 93 | 1008.0 |
| 20260507021902 | 54 | 210 | 8.0 | 0.0 | 0.00 | 0.00 | 0.00 | 93 | 1008.0 |
| 20260507021850 | 54 | 200 | 9.0 | 0.0 | 0.00 | 0.00 | 0.00 | 93 | |
| 20260507020511 | 54 | 200 | 9.0 | 0.0 | 0.00 | 0.00 | 0.00 | 93 | 1008.0 |
| 20260507020210 | 54 | 200 | 9.0 | 0.0 | 0.00 | 0.00 | 0.00 | 93 | 1008.0 |
| 20260507015803 | 54 | 200 | 10.0 | 0.0 | 0.00 | 0.00 | 0.00 | 100 | 1007.0 |
| 20260507014703 | 54 | 200 | 10.0 | 0.0 | 0.00 | 0.00 | 0.00 | 100 | 1007.0 |
| 20260507014303 | 54 | 200 | 10.0 | 0.0 | 0.00 | 0.00 | 0.00 | 100 | 1007.0 |
| 20260507013102 | 54 | 180 | 6.0 | 0.0 | 0.00 | 0.00 | 0.00 | 100 | 1007.0 |